<?xml version="1.0" encoding="utf-8"?>
<gpx xmlns:xsi="http://www.w3.org/2001/XMLSchema-instance" xmlns:xsd="http://www.w3.org/2001/XMLSchema" version="1.1" creator="Shapelink.com" xmlns="http://www.topografix.com/GPX/1/1" xmlns:gpxtpx="http://www.garmin.com/xmlschemas/TrackPointExtension/v1">
  <metadata>
    <name>Ejecutar 1.39 km, 2019-12-02</name>
    <desc></desc>
    <author><name>Björn Hagström</name></author> 
    <time>1970-01-01T01:00:00Z</time>
  </metadata>
  <trk>
    <name>Ejecutar 1.39 km, 2019-12-02</name>
    <trkseg>
      <trkpt lat="59.313578" lon="18.036702">
        <ele>10</ele>
        <time>1970-01-01T01:00:00Z</time>
      </trkpt>
      <trkpt lat="59.313577" lon="18.036739">
        <ele>10</ele>
        <time>1970-01-01T01:00:00Z</time>
      </trkpt>
      <trkpt lat="59.313577" lon="18.036776">
        <ele>10</ele>
        <time>1970-01-01T01:00:00Z</time>
      </trkpt>
      <trkpt lat="59.313578" lon="18.036815">
        <ele>10</ele>
        <time>1970-01-01T01:00:00Z</time>
      </trkpt>
      <trkpt lat="59.31358" lon="18.036855">
        <ele>10</ele>
        <time>1970-01-01T01:00:00Z</time>
      </trkpt>
      <trkpt lat="59.313583" lon="18.036895">
        <ele>10.0909</ele>
        <time>1970-01-01T01:00:00Z</time>
      </trkpt>
      <trkpt lat="59.313586" lon="18.036937">
        <ele>10.1818</ele>
        <time>1970-01-01T01:00:00Z</time>
      </trkpt>
      <trkpt lat="59.31359" lon="18.03698">
        <ele>10.2727</ele>
        <time>1970-01-01T01:00:00Z</time>
      </trkpt>
      <trkpt lat="59.313595" lon="18.037023">
        <ele>10.3636</ele>
        <time>1970-01-01T01:00:00Z</time>
      </trkpt>
      <trkpt lat="59.313601" lon="18.037067">
        <ele>10.4545</ele>
        <time>1970-01-01T01:00:00Z</time>
      </trkpt>
      <trkpt lat="59.313607" lon="18.037113">
        <ele>10.5455</ele>
        <time>1970-01-01T01:00:00Z</time>
      </trkpt>
      <trkpt lat="59.313613" lon="18.037159">
        <ele>10.6364</ele>
        <time>1970-01-01T01:00:00Z</time>
      </trkpt>
      <trkpt lat="59.31362" lon="18.037205">
        <ele>10.7273</ele>
        <time>1970-01-01T01:00:00Z</time>
      </trkpt>
      <trkpt lat="59.313627" lon="18.037253">
        <ele>10.8182</ele>
        <time>1970-01-01T01:00:00Z</time>
      </trkpt>
      <trkpt lat="59.313634" lon="18.037301">
        <ele>10.9091</ele>
        <time>1970-01-01T01:00:00Z</time>
      </trkpt>
      <trkpt lat="59.313641" lon="18.037349">
        <ele>11</ele>
        <time>1970-01-01T01:00:00Z</time>
      </trkpt>
      <trkpt lat="59.313648" lon="18.037398">
        <ele>11</ele>
        <time>1970-01-01T01:00:00Z</time>
      </trkpt>
      <trkpt lat="59.313655" lon="18.037448">
        <ele>11</ele>
        <time>1970-01-01T01:00:00Z</time>
      </trkpt>
      <trkpt lat="59.313663" lon="18.037498">
        <ele>11</ele>
        <time>1970-01-01T01:00:00Z</time>
      </trkpt>
      <trkpt lat="59.31367" lon="18.037549">
        <ele>11</ele>
        <time>1970-01-01T01:00:00Z</time>
      </trkpt>
      <trkpt lat="59.313676" lon="18.0376">
        <ele>11.0909</ele>
        <time>1970-01-01T01:00:00Z</time>
      </trkpt>
      <trkpt lat="59.313683" lon="18.037651">
        <ele>11.1818</ele>
        <time>1970-01-01T01:00:00Z</time>
      </trkpt>
      <trkpt lat="59.313689" lon="18.037703">
        <ele>11.2727</ele>
        <time>1970-01-01T01:00:00Z</time>
      </trkpt>
      <trkpt lat="59.313695" lon="18.037755">
        <ele>11.3636</ele>
        <time>1970-01-01T01:00:00Z</time>
      </trkpt>
      <trkpt lat="59.313702" lon="18.037807">
        <ele>11.4545</ele>
        <time>1970-01-01T01:00:00Z</time>
      </trkpt>
      <trkpt lat="59.313711" lon="18.037859">
        <ele>11.5455</ele>
        <time>1970-01-01T01:00:00Z</time>
      </trkpt>
      <trkpt lat="59.313721" lon="18.03791">
        <ele>11.6364</ele>
        <time>1970-01-01T01:00:00Z</time>
      </trkpt>
      <trkpt lat="59.313731" lon="18.037959">
        <ele>11.7273</ele>
        <time>1970-01-01T01:00:00Z</time>
      </trkpt>
      <trkpt lat="59.313739" lon="18.038003">
        <ele>11.8182</ele>
        <time>1970-01-01T01:00:00Z</time>
      </trkpt>
      <trkpt lat="59.313744" lon="18.038048">
        <ele>11.9091</ele>
        <time>1970-01-01T01:00:00Z</time>
      </trkpt>
      <trkpt lat="59.313747" lon="18.038095">
        <ele>12.0909</ele>
        <time>1970-01-01T01:00:00Z</time>
      </trkpt>
      <trkpt lat="59.313748" lon="18.038143">
        <ele>12.1818</ele>
        <time>1970-01-01T01:00:00Z</time>
      </trkpt>
      <trkpt lat="59.313749" lon="18.038193">
        <ele>12.2727</ele>
        <time>1970-01-01T01:00:00Z</time>
      </trkpt>
      <trkpt lat="59.313749" lon="18.038243">
        <ele>12.4545</ele>
        <time>1970-01-01T01:00:00Z</time>
      </trkpt>
      <trkpt lat="59.313749" lon="18.038292">
        <ele>12.6364</ele>
        <time>1970-01-01T01:00:00Z</time>
      </trkpt>
      <trkpt lat="59.31375" lon="18.038341">
        <ele>12.8182</ele>
        <time>1970-01-01T01:00:00Z</time>
      </trkpt>
      <trkpt lat="59.313752" lon="18.038389">
        <ele>13</ele>
        <time>1970-01-01T01:00:00Z</time>
      </trkpt>
      <trkpt lat="59.313756" lon="18.038435">
        <ele>13.2727</ele>
        <time>1970-01-01T01:00:00Z</time>
      </trkpt>
      <trkpt lat="59.313761" lon="18.03848">
        <ele>13.5455</ele>
        <time>1970-01-01T01:00:00Z</time>
      </trkpt>
      <trkpt lat="59.313767" lon="18.038524">
        <ele>13.8182</ele>
        <time>1970-01-01T01:00:00Z</time>
      </trkpt>
      <trkpt lat="59.313774" lon="18.038567">
        <ele>14.1818</ele>
        <time>1970-01-01T01:00:00Z</time>
      </trkpt>
      <trkpt lat="59.313781" lon="18.03861">
        <ele>14.4545</ele>
        <time>1970-01-01T01:00:00Z</time>
      </trkpt>
      <trkpt lat="59.313789" lon="18.038652">
        <ele>14.7273</ele>
        <time>1970-01-01T01:00:00Z</time>
      </trkpt>
      <trkpt lat="59.313797" lon="18.038694">
        <ele>15.0909</ele>
        <time>1970-01-01T01:00:00Z</time>
      </trkpt>
      <trkpt lat="59.313805" lon="18.038737">
        <ele>15.3636</ele>
        <time>1970-01-01T01:00:00Z</time>
      </trkpt>
      <trkpt lat="59.313813" lon="18.03878">
        <ele>15.6364</ele>
        <time>1970-01-01T01:00:00Z</time>
      </trkpt>
      <trkpt lat="59.313821" lon="18.038823">
        <ele>15.9091</ele>
        <time>1970-01-01T01:00:00Z</time>
      </trkpt>
      <trkpt lat="59.313829" lon="18.038867">
        <ele>16.2727</ele>
        <time>1970-01-01T01:00:00Z</time>
      </trkpt>
      <trkpt lat="59.313836" lon="18.038911">
        <ele>16.5455</ele>
        <time>1970-01-01T01:00:00Z</time>
      </trkpt>
      <trkpt lat="59.313843" lon="18.038956">
        <ele>16.8182</ele>
        <time>1970-01-01T01:00:00Z</time>
      </trkpt>
      <trkpt lat="59.31385" lon="18.039001">
        <ele>17.1818</ele>
        <time>1970-01-01T01:00:00Z</time>
      </trkpt>
      <trkpt lat="59.313856" lon="18.039046">
        <ele>17.4545</ele>
        <time>1970-01-01T01:00:00Z</time>
      </trkpt>
      <trkpt lat="59.313863" lon="18.039091">
        <ele>17.8182</ele>
        <time>1970-01-01T01:00:00Z</time>
      </trkpt>
      <trkpt lat="59.313869" lon="18.039136">
        <ele>18.1818</ele>
        <time>1970-01-01T01:00:00Z</time>
      </trkpt>
      <trkpt lat="59.313875" lon="18.039182">
        <ele>18.4545</ele>
        <time>1970-01-01T01:00:00Z</time>
      </trkpt>
      <trkpt lat="59.313882" lon="18.039226">
        <ele>18.8182</ele>
        <time>1970-01-01T01:00:00Z</time>
      </trkpt>
      <trkpt lat="59.31389" lon="18.03927">
        <ele>19.1818</ele>
        <time>1970-01-01T01:00:00Z</time>
      </trkpt>
      <trkpt lat="59.313898" lon="18.039313">
        <ele>19.5455</ele>
        <time>1970-01-01T01:00:00Z</time>
      </trkpt>
      <trkpt lat="59.313907" lon="18.039355">
        <ele>19.8182</ele>
        <time>1970-01-01T01:00:00Z</time>
      </trkpt>
      <trkpt lat="59.313916" lon="18.039396">
        <ele>20.0909</ele>
        <time>1970-01-01T01:00:00Z</time>
      </trkpt>
      <trkpt lat="59.313926" lon="18.039437">
        <ele>20.3636</ele>
        <time>1970-01-01T01:00:00Z</time>
      </trkpt>
      <trkpt lat="59.313935" lon="18.039479">
        <ele>20.5455</ele>
        <time>1970-01-01T01:00:00Z</time>
      </trkpt>
      <trkpt lat="59.313943" lon="18.039522">
        <ele>20.7273</ele>
        <time>1970-01-01T01:00:00Z</time>
      </trkpt>
      <trkpt lat="59.313951" lon="18.039566">
        <ele>20.8182</ele>
        <time>1970-01-01T01:00:00Z</time>
      </trkpt>
      <trkpt lat="59.313958" lon="18.03961">
        <ele>21</ele>
        <time>1970-01-01T01:00:00Z</time>
      </trkpt>
      <trkpt lat="59.313964" lon="18.039655">
        <ele>21.1818</ele>
        <time>1970-01-01T01:00:00Z</time>
      </trkpt>
      <trkpt lat="59.31397" lon="18.039701">
        <ele>21.2727</ele>
        <time>1970-01-01T01:00:00Z</time>
      </trkpt>
      <trkpt lat="59.313976" lon="18.039746">
        <ele>21.3636</ele>
        <time>1970-01-01T01:00:00Z</time>
      </trkpt>
      <trkpt lat="59.313982" lon="18.039792">
        <ele>21.4545</ele>
        <time>1970-01-01T01:00:00Z</time>
      </trkpt>
      <trkpt lat="59.313989" lon="18.039838">
        <ele>21.5455</ele>
        <time>1970-01-01T01:00:00Z</time>
      </trkpt>
      <trkpt lat="59.313995" lon="18.039883">
        <ele>21.6364</ele>
        <time>1970-01-01T01:00:00Z</time>
      </trkpt>
      <trkpt lat="59.314003" lon="18.039929">
        <ele>21.7273</ele>
        <time>1970-01-01T01:00:00Z</time>
      </trkpt>
      <trkpt lat="59.314012" lon="18.039974">
        <ele>21.8182</ele>
        <time>1970-01-01T01:00:00Z</time>
      </trkpt>
      <trkpt lat="59.314022" lon="18.040018">
        <ele>21.9091</ele>
        <time>1970-01-01T01:00:00Z</time>
      </trkpt>
      <trkpt lat="59.314032" lon="18.040063">
        <ele>22</ele>
        <time>1970-01-01T01:00:00Z</time>
      </trkpt>
      <trkpt lat="59.314042" lon="18.040107">
        <ele>21.9091</ele>
        <time>1970-01-01T01:00:00Z</time>
      </trkpt>
      <trkpt lat="59.314049" lon="18.040151">
        <ele>21.8182</ele>
        <time>1970-01-01T01:00:00Z</time>
      </trkpt>
      <trkpt lat="59.314054" lon="18.040196">
        <ele>21.7273</ele>
        <time>1970-01-01T01:00:00Z</time>
      </trkpt>
      <trkpt lat="59.314058" lon="18.040241">
        <ele>21.6364</ele>
        <time>1970-01-01T01:00:00Z</time>
      </trkpt>
      <trkpt lat="59.31406" lon="18.040287">
        <ele>21.5455</ele>
        <time>1970-01-01T01:00:00Z</time>
      </trkpt>
      <trkpt lat="59.314064" lon="18.040333">
        <ele>21.4545</ele>
        <time>1970-01-01T01:00:00Z</time>
      </trkpt>
      <trkpt lat="59.314068" lon="18.040379">
        <ele>21.3636</ele>
        <time>1970-01-01T01:00:00Z</time>
      </trkpt>
      <trkpt lat="59.314073" lon="18.040426">
        <ele>21.2727</ele>
        <time>1970-01-01T01:00:00Z</time>
      </trkpt>
      <trkpt lat="59.314077" lon="18.040472">
        <ele>21.1818</ele>
        <time>1970-01-01T01:00:00Z</time>
      </trkpt>
      <trkpt lat="59.314081" lon="18.040518">
        <ele>21.0909</ele>
        <time>1970-01-01T01:00:00Z</time>
      </trkpt>
      <trkpt lat="59.314084" lon="18.040563">
        <ele>21</ele>
        <time>1970-01-01T01:00:00Z</time>
      </trkpt>
      <trkpt lat="59.314087" lon="18.040609">
        <ele>21.0909</ele>
        <time>1970-01-01T01:00:00Z</time>
      </trkpt>
      <trkpt lat="59.314088" lon="18.040653">
        <ele>21.1818</ele>
        <time>1970-01-01T01:00:00Z</time>
      </trkpt>
      <trkpt lat="59.314089" lon="18.040698">
        <ele>21.2727</ele>
        <time>1970-01-01T01:00:00Z</time>
      </trkpt>
      <trkpt lat="59.314089" lon="18.040742">
        <ele>21.3636</ele>
        <time>1970-01-01T01:00:00Z</time>
      </trkpt>
      <trkpt lat="59.31409" lon="18.040786">
        <ele>21.4545</ele>
        <time>1970-01-01T01:00:00Z</time>
      </trkpt>
      <trkpt lat="59.314091" lon="18.04083">
        <ele>21.5455</ele>
        <time>1970-01-01T01:00:00Z</time>
      </trkpt>
      <trkpt lat="59.314093" lon="18.040875">
        <ele>21.6364</ele>
        <time>1970-01-01T01:00:00Z</time>
      </trkpt>
      <trkpt lat="59.314097" lon="18.04092">
        <ele>21.7273</ele>
        <time>1970-01-01T01:00:00Z</time>
      </trkpt>
      <trkpt lat="59.314102" lon="18.040967">
        <ele>21.8182</ele>
        <time>1970-01-01T01:00:00Z</time>
      </trkpt>
      <trkpt lat="59.31411" lon="18.041014">
        <ele>21.9091</ele>
        <time>1970-01-01T01:00:00Z</time>
      </trkpt>
      <trkpt lat="59.31412" lon="18.041062">
        <ele>22</ele>
        <time>1970-01-01T01:00:00Z</time>
      </trkpt>
      <trkpt lat="59.314131" lon="18.041111">
        <ele>22</ele>
        <time>1970-01-01T01:00:00Z</time>
      </trkpt>
      <trkpt lat="59.314143" lon="18.041161">
        <ele>22</ele>
        <time>1970-01-01T01:00:00Z</time>
      </trkpt>
      <trkpt lat="59.314155" lon="18.04121">
        <ele>22</ele>
        <time>1970-01-01T01:00:00Z</time>
      </trkpt>
      <trkpt lat="59.314166" lon="18.041259">
        <ele>22</ele>
        <time>1970-01-01T01:00:00Z</time>
      </trkpt>
      <trkpt lat="59.314177" lon="18.041308">
        <ele>22</ele>
        <time>1970-01-01T01:00:00Z</time>
      </trkpt>
      <trkpt lat="59.314185" lon="18.041357">
        <ele>22</ele>
        <time>1970-01-01T01:00:00Z</time>
      </trkpt>
      <trkpt lat="59.314193" lon="18.041405">
        <ele>22.0909</ele>
        <time>1970-01-01T01:00:00Z</time>
      </trkpt>
      <trkpt lat="59.3142" lon="18.041452">
        <ele>22.1818</ele>
        <time>1970-01-01T01:00:00Z</time>
      </trkpt>
      <trkpt lat="59.314206" lon="18.0415">
        <ele>22.1818</ele>
        <time>1970-01-01T01:00:00Z</time>
      </trkpt>
      <trkpt lat="59.314212" lon="18.041547">
        <ele>22.1818</ele>
        <time>1970-01-01T01:00:00Z</time>
      </trkpt>
      <trkpt lat="59.314218" lon="18.041595">
        <ele>22.1818</ele>
        <time>1970-01-01T01:00:00Z</time>
      </trkpt>
      <trkpt lat="59.314225" lon="18.041643">
        <ele>22.1818</ele>
        <time>1970-01-01T01:00:00Z</time>
      </trkpt>
      <trkpt lat="59.314233" lon="18.041692">
        <ele>22.1818</ele>
        <time>1970-01-01T01:00:00Z</time>
      </trkpt>
      <trkpt lat="59.314241" lon="18.041741">
        <ele>22.1818</ele>
        <time>1970-01-01T01:00:00Z</time>
      </trkpt>
      <trkpt lat="59.314251" lon="18.04179">
        <ele>22.1818</ele>
        <time>1970-01-01T01:00:00Z</time>
      </trkpt>
      <trkpt lat="59.31426" lon="18.04184">
        <ele>22.1818</ele>
        <time>1970-01-01T01:00:00Z</time>
      </trkpt>
      <trkpt lat="59.31427" lon="18.041889">
        <ele>22.1818</ele>
        <time>1970-01-01T01:00:00Z</time>
      </trkpt>
      <trkpt lat="59.31428" lon="18.041939">
        <ele>22.0909</ele>
        <time>1970-01-01T01:00:00Z</time>
      </trkpt>
      <trkpt lat="59.31429" lon="18.041989">
        <ele>22</ele>
        <time>1970-01-01T01:00:00Z</time>
      </trkpt>
      <trkpt lat="59.3143" lon="18.042039">
        <ele>22</ele>
        <time>1970-01-01T01:00:00Z</time>
      </trkpt>
      <trkpt lat="59.314309" lon="18.042089">
        <ele>22</ele>
        <time>1970-01-01T01:00:00Z</time>
      </trkpt>
      <trkpt lat="59.314316" lon="18.042137">
        <ele>22</ele>
        <time>1970-01-01T01:00:00Z</time>
      </trkpt>
      <trkpt lat="59.314322" lon="18.042185">
        <ele>22.0909</ele>
        <time>1970-01-01T01:00:00Z</time>
      </trkpt>
      <trkpt lat="59.314326" lon="18.042232">
        <ele>22.1818</ele>
        <time>1970-01-01T01:00:00Z</time>
      </trkpt>
      <trkpt lat="59.314329" lon="18.042278">
        <ele>22.2727</ele>
        <time>1970-01-01T01:00:00Z</time>
      </trkpt>
      <trkpt lat="59.314329" lon="18.042323">
        <ele>22.3636</ele>
        <time>1970-01-01T01:00:00Z</time>
      </trkpt>
      <trkpt lat="59.314328" lon="18.042368">
        <ele>22.4545</ele>
        <time>1970-01-01T01:00:00Z</time>
      </trkpt>
      <trkpt lat="59.314327" lon="18.042413">
        <ele>22.5455</ele>
        <time>1970-01-01T01:00:00Z</time>
      </trkpt>
      <trkpt lat="59.314325" lon="18.042459">
        <ele>22.6364</ele>
        <time>1970-01-01T01:00:00Z</time>
      </trkpt>
      <trkpt lat="59.314325" lon="18.042505">
        <ele>22.7273</ele>
        <time>1970-01-01T01:00:00Z</time>
      </trkpt>
      <trkpt lat="59.314326" lon="18.042551">
        <ele>22.8182</ele>
        <time>1970-01-01T01:00:00Z</time>
      </trkpt>
      <trkpt lat="59.31433" lon="18.042597">
        <ele>22.9091</ele>
        <time>1970-01-01T01:00:00Z</time>
      </trkpt>
      <trkpt lat="59.314337" lon="18.042644">
        <ele>23</ele>
        <time>1970-01-01T01:00:00Z</time>
      </trkpt>
      <trkpt lat="59.314348" lon="18.042691">
        <ele>23</ele>
        <time>1970-01-01T01:00:00Z</time>
      </trkpt>
      <trkpt lat="59.314364" lon="18.042739">
        <ele>23</ele>
        <time>1970-01-01T01:00:00Z</time>
      </trkpt>
      <trkpt lat="59.314383" lon="18.042787">
        <ele>23</ele>
        <time>1970-01-01T01:00:00Z</time>
      </trkpt>
      <trkpt lat="59.314401" lon="18.042835">
        <ele>23</ele>
        <time>1970-01-01T01:00:00Z</time>
      </trkpt>
      <trkpt lat="59.314416" lon="18.042882">
        <ele>23</ele>
        <time>1970-01-01T01:00:00Z</time>
      </trkpt>
      <trkpt lat="59.314426" lon="18.042929">
        <ele>23.0909</ele>
        <time>1970-01-01T01:00:00Z</time>
      </trkpt>
      <trkpt lat="59.314432" lon="18.042975">
        <ele>23.1818</ele>
        <time>1970-01-01T01:00:00Z</time>
      </trkpt>
      <trkpt lat="59.314434" lon="18.043022">
        <ele>23.2727</ele>
        <time>1970-01-01T01:00:00Z</time>
      </trkpt>
      <trkpt lat="59.314435" lon="18.043069">
        <ele>23.3636</ele>
        <time>1970-01-01T01:00:00Z</time>
      </trkpt>
      <trkpt lat="59.314434" lon="18.043115">
        <ele>23.4545</ele>
        <time>1970-01-01T01:00:00Z</time>
      </trkpt>
      <trkpt lat="59.314433" lon="18.043162">
        <ele>23.6364</ele>
        <time>1970-01-01T01:00:00Z</time>
      </trkpt>
      <trkpt lat="59.314431" lon="18.043209">
        <ele>23.8182</ele>
        <time>1970-01-01T01:00:00Z</time>
      </trkpt>
      <trkpt lat="59.314429" lon="18.043256">
        <ele>24</ele>
        <time>1970-01-01T01:00:00Z</time>
      </trkpt>
      <trkpt lat="59.314428" lon="18.043303">
        <ele>24.1818</ele>
        <time>1970-01-01T01:00:00Z</time>
      </trkpt>
      <trkpt lat="59.314428" lon="18.04335">
        <ele>24.3636</ele>
        <time>1970-01-01T01:00:00Z</time>
      </trkpt>
      <trkpt lat="59.314429" lon="18.043396">
        <ele>24.5455</ele>
        <time>1970-01-01T01:00:00Z</time>
      </trkpt>
      <trkpt lat="59.314431" lon="18.043442">
        <ele>24.6364</ele>
        <time>1970-01-01T01:00:00Z</time>
      </trkpt>
      <trkpt lat="59.314434" lon="18.043487">
        <ele>24.7273</ele>
        <time>1970-01-01T01:00:00Z</time>
      </trkpt>
      <trkpt lat="59.314438" lon="18.043531">
        <ele>24.8182</ele>
        <time>1970-01-01T01:00:00Z</time>
      </trkpt>
      <trkpt lat="59.314443" lon="18.043578">
        <ele>24.9091</ele>
        <time>1970-01-01T01:00:00Z</time>
      </trkpt>
      <trkpt lat="59.31445" lon="18.043625">
        <ele>25</ele>
        <time>1970-01-01T01:00:00Z</time>
      </trkpt>
      <trkpt lat="59.314458" lon="18.043673">
        <ele>25</ele>
        <time>1970-01-01T01:00:00Z</time>
      </trkpt>
      <trkpt lat="59.314466" lon="18.043719">
        <ele>25</ele>
        <time>1970-01-01T01:00:00Z</time>
      </trkpt>
      <trkpt lat="59.314472" lon="18.043764">
        <ele>25</ele>
        <time>1970-01-01T01:00:00Z</time>
      </trkpt>
      <trkpt lat="59.314478" lon="18.043808">
        <ele>25</ele>
        <time>1970-01-01T01:00:00Z</time>
      </trkpt>
      <trkpt lat="59.314483" lon="18.043852">
        <ele>25</ele>
        <time>1970-01-01T01:00:00Z</time>
      </trkpt>
      <trkpt lat="59.314488" lon="18.043896">
        <ele>25</ele>
        <time>1970-01-01T01:00:00Z</time>
      </trkpt>
      <trkpt lat="59.314494" lon="18.043942">
        <ele>25</ele>
        <time>1970-01-01T01:00:00Z</time>
      </trkpt>
      <trkpt lat="59.314499" lon="18.043989">
        <ele>25</ele>
        <time>1970-01-01T01:00:00Z</time>
      </trkpt>
      <trkpt lat="59.314504" lon="18.044037">
        <ele>25</ele>
        <time>1970-01-01T01:00:00Z</time>
      </trkpt>
      <trkpt lat="59.314508" lon="18.044085">
        <ele>25</ele>
        <time>1970-01-01T01:00:00Z</time>
      </trkpt>
      <trkpt lat="59.314511" lon="18.044133">
        <ele>24.9091</ele>
        <time>1970-01-01T01:00:00Z</time>
      </trkpt>
      <trkpt lat="59.314513" lon="18.04418">
        <ele>24.8182</ele>
        <time>1970-01-01T01:00:00Z</time>
      </trkpt>
      <trkpt lat="59.314515" lon="18.044228">
        <ele>24.7273</ele>
        <time>1970-01-01T01:00:00Z</time>
      </trkpt>
      <trkpt lat="59.314515" lon="18.044275">
        <ele>24.6364</ele>
        <time>1970-01-01T01:00:00Z</time>
      </trkpt>
      <trkpt lat="59.314515" lon="18.044322">
        <ele>24.5455</ele>
        <time>1970-01-01T01:00:00Z</time>
      </trkpt>
      <trkpt lat="59.314514" lon="18.044368">
        <ele>24.4545</ele>
        <time>1970-01-01T01:00:00Z</time>
      </trkpt>
      <trkpt lat="59.314513" lon="18.044414">
        <ele>24.3636</ele>
        <time>1970-01-01T01:00:00Z</time>
      </trkpt>
      <trkpt lat="59.314511" lon="18.04446">
        <ele>24.2727</ele>
        <time>1970-01-01T01:00:00Z</time>
      </trkpt>
      <trkpt lat="59.314509" lon="18.044504">
        <ele>24.1818</ele>
        <time>1970-01-01T01:00:00Z</time>
      </trkpt>
      <trkpt lat="59.314507" lon="18.044549">
        <ele>24</ele>
        <time>1970-01-01T01:00:00Z</time>
      </trkpt>
      <trkpt lat="59.314506" lon="18.044593">
        <ele>23.8182</ele>
        <time>1970-01-01T01:00:00Z</time>
      </trkpt>
      <trkpt lat="59.314506" lon="18.044637">
        <ele>23.7273</ele>
        <time>1970-01-01T01:00:00Z</time>
      </trkpt>
      <trkpt lat="59.314508" lon="18.044681">
        <ele>23.6364</ele>
        <time>1970-01-01T01:00:00Z</time>
      </trkpt>
      <trkpt lat="59.31451" lon="18.044725">
        <ele>23.4545</ele>
        <time>1970-01-01T01:00:00Z</time>
      </trkpt>
      <trkpt lat="59.314515" lon="18.044769">
        <ele>23.2727</ele>
        <time>1970-01-01T01:00:00Z</time>
      </trkpt>
      <trkpt lat="59.31452" lon="18.044814">
        <ele>23.0909</ele>
        <time>1970-01-01T01:00:00Z</time>
      </trkpt>
      <trkpt lat="59.314526" lon="18.04486">
        <ele>22.9091</ele>
        <time>1970-01-01T01:00:00Z</time>
      </trkpt>
      <trkpt lat="59.314533" lon="18.044907">
        <ele>22.7273</ele>
        <time>1970-01-01T01:00:00Z</time>
      </trkpt>
      <trkpt lat="59.31454" lon="18.044955">
        <ele>22.5455</ele>
        <time>1970-01-01T01:00:00Z</time>
      </trkpt>
      <trkpt lat="59.314547" lon="18.045003">
        <ele>22.3636</ele>
        <time>1970-01-01T01:00:00Z</time>
      </trkpt>
      <trkpt lat="59.314553" lon="18.04505">
        <ele>22.2727</ele>
        <time>1970-01-01T01:00:00Z</time>
      </trkpt>
      <trkpt lat="59.314558" lon="18.045097">
        <ele>22.1818</ele>
        <time>1970-01-01T01:00:00Z</time>
      </trkpt>
      <trkpt lat="59.314562" lon="18.045144">
        <ele>22.0909</ele>
        <time>1970-01-01T01:00:00Z</time>
      </trkpt>
      <trkpt lat="59.314566" lon="18.04519">
        <ele>22</ele>
        <time>1970-01-01T01:00:00Z</time>
      </trkpt>
      <trkpt lat="59.314569" lon="18.045237">
        <ele>22</ele>
        <time>1970-01-01T01:00:00Z</time>
      </trkpt>
      <trkpt lat="59.314571" lon="18.045286">
        <ele>22</ele>
        <time>1970-01-01T01:00:00Z</time>
      </trkpt>
      <trkpt lat="59.314574" lon="18.045336">
        <ele>22</ele>
        <time>1970-01-01T01:00:00Z</time>
      </trkpt>
      <trkpt lat="59.314576" lon="18.045389">
        <ele>22</ele>
        <time>1970-01-01T01:00:00Z</time>
      </trkpt>
      <trkpt lat="59.314579" lon="18.045445">
        <ele>22</ele>
        <time>1970-01-01T01:00:00Z</time>
      </trkpt>
      <trkpt lat="59.314582" lon="18.045503">
        <ele>22</ele>
        <time>1970-01-01T01:00:00Z</time>
      </trkpt>
      <trkpt lat="59.314585" lon="18.045564">
        <ele>22</ele>
        <time>1970-01-01T01:00:00Z</time>
      </trkpt>
      <trkpt lat="59.314587" lon="18.045627">
        <ele>22</ele>
        <time>1970-01-01T01:00:00Z</time>
      </trkpt>
      <trkpt lat="59.31459" lon="18.045691">
        <ele>22</ele>
        <time>1970-01-01T01:00:00Z</time>
      </trkpt>
      <trkpt lat="59.314591" lon="18.045756">
        <ele>22</ele>
        <time>1970-01-01T01:00:00Z</time>
      </trkpt>
      <trkpt lat="59.314592" lon="18.045823">
        <ele>22</ele>
        <time>1970-01-01T01:00:00Z</time>
      </trkpt>
      <trkpt lat="59.314593" lon="18.045889">
        <ele>22</ele>
        <time>1970-01-01T01:00:00Z</time>
      </trkpt>
      <trkpt lat="59.314592" lon="18.045956">
        <ele>22.0909</ele>
        <time>1970-01-01T01:00:00Z</time>
      </trkpt>
      <trkpt lat="59.314591" lon="18.046023">
        <ele>22.1818</ele>
        <time>1970-01-01T01:00:00Z</time>
      </trkpt>
      <trkpt lat="59.31459" lon="18.046089">
        <ele>22.2727</ele>
        <time>1970-01-01T01:00:00Z</time>
      </trkpt>
      <trkpt lat="59.314587" lon="18.046155">
        <ele>22.3636</ele>
        <time>1970-01-01T01:00:00Z</time>
      </trkpt>
      <trkpt lat="59.314585" lon="18.046221">
        <ele>22.4545</ele>
        <time>1970-01-01T01:00:00Z</time>
      </trkpt>
      <trkpt lat="59.314581" lon="18.046286">
        <ele>22.5455</ele>
        <time>1970-01-01T01:00:00Z</time>
      </trkpt>
      <trkpt lat="59.314578" lon="18.04635">
        <ele>22.7273</ele>
        <time>1970-01-01T01:00:00Z</time>
      </trkpt>
      <trkpt lat="59.314574" lon="18.046413">
        <ele>22.9091</ele>
        <time>1970-01-01T01:00:00Z</time>
      </trkpt>
      <trkpt lat="59.31457" lon="18.046474">
        <ele>23.0909</ele>
        <time>1970-01-01T01:00:00Z</time>
      </trkpt>
      <trkpt lat="59.314566" lon="18.046535">
        <ele>23.2727</ele>
        <time>1970-01-01T01:00:00Z</time>
      </trkpt>
      <trkpt lat="59.314563" lon="18.046594">
        <ele>23.4545</ele>
        <time>1970-01-01T01:00:00Z</time>
      </trkpt>
      <trkpt lat="59.314561" lon="18.046652">
        <ele>23.5455</ele>
        <time>1970-01-01T01:00:00Z</time>
      </trkpt>
      <trkpt lat="59.314559" lon="18.046709">
        <ele>23.6364</ele>
        <time>1970-01-01T01:00:00Z</time>
      </trkpt>
      <trkpt lat="59.314558" lon="18.046764">
        <ele>23.7273</ele>
        <time>1970-01-01T01:00:00Z</time>
      </trkpt>
      <trkpt lat="59.314558" lon="18.046817">
        <ele>23.8182</ele>
        <time>1970-01-01T01:00:00Z</time>
      </trkpt>
      <trkpt lat="59.314559" lon="18.04687">
        <ele>23.9091</ele>
        <time>1970-01-01T01:00:00Z</time>
      </trkpt>
      <trkpt lat="59.31456" lon="18.046922">
        <ele>24</ele>
        <time>1970-01-01T01:00:00Z</time>
      </trkpt>
      <trkpt lat="59.314562" lon="18.046973">
        <ele>24</ele>
        <time>1970-01-01T01:00:00Z</time>
      </trkpt>
      <trkpt lat="59.314563" lon="18.047023">
        <ele>24</ele>
        <time>1970-01-01T01:00:00Z</time>
      </trkpt>
      <trkpt lat="59.314564" lon="18.047074">
        <ele>24</ele>
        <time>1970-01-01T01:00:00Z</time>
      </trkpt>
      <trkpt lat="59.314565" lon="18.047124">
        <ele>24</ele>
        <time>1970-01-01T01:00:00Z</time>
      </trkpt>
      <trkpt lat="59.314566" lon="18.047174">
        <ele>24.0909</ele>
        <time>1970-01-01T01:00:00Z</time>
      </trkpt>
      <trkpt lat="59.314566" lon="18.047224">
        <ele>24.1818</ele>
        <time>1970-01-01T01:00:00Z</time>
      </trkpt>
      <trkpt lat="59.314567" lon="18.047274">
        <ele>24.2727</ele>
        <time>1970-01-01T01:00:00Z</time>
      </trkpt>
      <trkpt lat="59.314568" lon="18.047323">
        <ele>24.3636</ele>
        <time>1970-01-01T01:00:00Z</time>
      </trkpt>
      <trkpt lat="59.314568" lon="18.047373">
        <ele>24.4545</ele>
        <time>1970-01-01T01:00:00Z</time>
      </trkpt>
      <trkpt lat="59.314568" lon="18.047422">
        <ele>24.5455</ele>
        <time>1970-01-01T01:00:00Z</time>
      </trkpt>
      <trkpt lat="59.314567" lon="18.047471">
        <ele>24.6364</ele>
        <time>1970-01-01T01:00:00Z</time>
      </trkpt>
      <trkpt lat="59.314566" lon="18.047521">
        <ele>24.7273</ele>
        <time>1970-01-01T01:00:00Z</time>
      </trkpt>
      <trkpt lat="59.314564" lon="18.047571">
        <ele>24.8182</ele>
        <time>1970-01-01T01:00:00Z</time>
      </trkpt>
      <trkpt lat="59.314563" lon="18.04762">
        <ele>24.9091</ele>
        <time>1970-01-01T01:00:00Z</time>
      </trkpt>
      <trkpt lat="59.314562" lon="18.04767">
        <ele>25.0909</ele>
        <time>1970-01-01T01:00:00Z</time>
      </trkpt>
      <trkpt lat="59.314562" lon="18.047719">
        <ele>25.1818</ele>
        <time>1970-01-01T01:00:00Z</time>
      </trkpt>
      <trkpt lat="59.314563" lon="18.047768">
        <ele>25.2727</ele>
        <time>1970-01-01T01:00:00Z</time>
      </trkpt>
      <trkpt lat="59.314566" lon="18.047816">
        <ele>25.3636</ele>
        <time>1970-01-01T01:00:00Z</time>
      </trkpt>
      <trkpt lat="59.31457" lon="18.047864">
        <ele>25.4545</ele>
        <time>1970-01-01T01:00:00Z</time>
      </trkpt>
      <trkpt lat="59.314575" lon="18.047912">
        <ele>25.5455</ele>
        <time>1970-01-01T01:00:00Z</time>
      </trkpt>
      <trkpt lat="59.31458" lon="18.04796">
        <ele>25.6364</ele>
        <time>1970-01-01T01:00:00Z</time>
      </trkpt>
      <trkpt lat="59.314586" lon="18.048007">
        <ele>25.8182</ele>
        <time>1970-01-01T01:00:00Z</time>
      </trkpt>
      <trkpt lat="59.314592" lon="18.048055">
        <ele>26</ele>
        <time>1970-01-01T01:00:00Z</time>
      </trkpt>
      <trkpt lat="59.314598" lon="18.048102">
        <ele>26.1818</ele>
        <time>1970-01-01T01:00:00Z</time>
      </trkpt>
      <trkpt lat="59.314603" lon="18.04815">
        <ele>26.3636</ele>
        <time>1970-01-01T01:00:00Z</time>
      </trkpt>
      <trkpt lat="59.314607" lon="18.048198">
        <ele>26.4545</ele>
        <time>1970-01-01T01:00:00Z</time>
      </trkpt>
      <trkpt lat="59.314611" lon="18.048247">
        <ele>26.5455</ele>
        <time>1970-01-01T01:00:00Z</time>
      </trkpt>
      <trkpt lat="59.314614" lon="18.048295">
        <ele>26.6364</ele>
        <time>1970-01-01T01:00:00Z</time>
      </trkpt>
      <trkpt lat="59.314617" lon="18.048344">
        <ele>26.8182</ele>
        <time>1970-01-01T01:00:00Z</time>
      </trkpt>
      <trkpt lat="59.314619" lon="18.048392">
        <ele>27</ele>
        <time>1970-01-01T01:00:00Z</time>
      </trkpt>
      <trkpt lat="59.314621" lon="18.048441">
        <ele>27.1818</ele>
        <time>1970-01-01T01:00:00Z</time>
      </trkpt>
      <trkpt lat="59.314624" lon="18.04849">
        <ele>27.3636</ele>
        <time>1970-01-01T01:00:00Z</time>
      </trkpt>
      <trkpt lat="59.314626" lon="18.048539">
        <ele>27.5455</ele>
        <time>1970-01-01T01:00:00Z</time>
      </trkpt>
      <trkpt lat="59.314628" lon="18.048588">
        <ele>27.7273</ele>
        <time>1970-01-01T01:00:00Z</time>
      </trkpt>
      <trkpt lat="59.314631" lon="18.048636">
        <ele>27.9091</ele>
        <time>1970-01-01T01:00:00Z</time>
      </trkpt>
      <trkpt lat="59.314633" lon="18.048685">
        <ele>28.0909</ele>
        <time>1970-01-01T01:00:00Z</time>
      </trkpt>
      <trkpt lat="59.314636" lon="18.048734">
        <ele>28.2727</ele>
        <time>1970-01-01T01:00:00Z</time>
      </trkpt>
      <trkpt lat="59.314638" lon="18.048783">
        <ele>28.4545</ele>
        <time>1970-01-01T01:00:00Z</time>
      </trkpt>
      <trkpt lat="59.31464" lon="18.048832">
        <ele>28.6364</ele>
        <time>1970-01-01T01:00:00Z</time>
      </trkpt>
      <trkpt lat="59.314642" lon="18.048881">
        <ele>28.7273</ele>
        <time>1970-01-01T01:00:00Z</time>
      </trkpt>
      <trkpt lat="59.314643" lon="18.04893">
        <ele>28.8182</ele>
        <time>1970-01-01T01:00:00Z</time>
      </trkpt>
      <trkpt lat="59.314645" lon="18.04898">
        <ele>28.9091</ele>
        <time>1970-01-01T01:00:00Z</time>
      </trkpt>
      <trkpt lat="59.314647" lon="18.049029">
        <ele>29</ele>
        <time>1970-01-01T01:00:00Z</time>
      </trkpt>
      <trkpt lat="59.314648" lon="18.049078">
        <ele>28.9091</ele>
        <time>1970-01-01T01:00:00Z</time>
      </trkpt>
      <trkpt lat="59.31465" lon="18.049127">
        <ele>28.8182</ele>
        <time>1970-01-01T01:00:00Z</time>
      </trkpt>
      <trkpt lat="59.314653" lon="18.049177">
        <ele>28.7273</ele>
        <time>1970-01-01T01:00:00Z</time>
      </trkpt>
      <trkpt lat="59.314655" lon="18.049226">
        <ele>28.6364</ele>
        <time>1970-01-01T01:00:00Z</time>
      </trkpt>
      <trkpt lat="59.314658" lon="18.049275">
        <ele>28.5455</ele>
        <time>1970-01-01T01:00:00Z</time>
      </trkpt>
      <trkpt lat="59.314661" lon="18.049324">
        <ele>28.3636</ele>
        <time>1970-01-01T01:00:00Z</time>
      </trkpt>
      <trkpt lat="59.314665" lon="18.049373">
        <ele>28.1818</ele>
        <time>1970-01-01T01:00:00Z</time>
      </trkpt>
      <trkpt lat="59.314669" lon="18.049422">
        <ele>28</ele>
        <time>1970-01-01T01:00:00Z</time>
      </trkpt>
      <trkpt lat="59.314674" lon="18.049471">
        <ele>27.7273</ele>
        <time>1970-01-01T01:00:00Z</time>
      </trkpt>
      <trkpt lat="59.314679" lon="18.049521">
        <ele>27.4545</ele>
        <time>1970-01-01T01:00:00Z</time>
      </trkpt>
      <trkpt lat="59.314685" lon="18.04957">
        <ele>27.1818</ele>
        <time>1970-01-01T01:00:00Z</time>
      </trkpt>
      <trkpt lat="59.314691" lon="18.049619">
        <ele>26.9091</ele>
        <time>1970-01-01T01:00:00Z</time>
      </trkpt>
      <trkpt lat="59.314697" lon="18.049668">
        <ele>26.6364</ele>
        <time>1970-01-01T01:00:00Z</time>
      </trkpt>
      <trkpt lat="59.314704" lon="18.049718">
        <ele>26.3636</ele>
        <time>1970-01-01T01:00:00Z</time>
      </trkpt>
      <trkpt lat="59.314711" lon="18.049767">
        <ele>26.0909</ele>
        <time>1970-01-01T01:00:00Z</time>
      </trkpt>
      <trkpt lat="59.314719" lon="18.049816">
        <ele>25.8182</ele>
        <time>1970-01-01T01:00:00Z</time>
      </trkpt>
      <trkpt lat="59.314726" lon="18.049865">
        <ele>25.5455</ele>
        <time>1970-01-01T01:00:00Z</time>
      </trkpt>
      <trkpt lat="59.314734" lon="18.049914">
        <ele>25.2727</ele>
        <time>1970-01-01T01:00:00Z</time>
      </trkpt>
      <trkpt lat="59.314742" lon="18.049962">
        <ele>25</ele>
        <time>1970-01-01T01:00:00Z</time>
      </trkpt>
      <trkpt lat="59.31475" lon="18.050011">
        <ele>24.8182</ele>
        <time>1970-01-01T01:00:00Z</time>
      </trkpt>
      <trkpt lat="59.314758" lon="18.050059">
        <ele>24.6364</ele>
        <time>1970-01-01T01:00:00Z</time>
      </trkpt>
      <trkpt lat="59.314765" lon="18.050108">
        <ele>24.3636</ele>
        <time>1970-01-01T01:00:00Z</time>
      </trkpt>
      <trkpt lat="59.314772" lon="18.050157">
        <ele>24.1818</ele>
        <time>1970-01-01T01:00:00Z</time>
      </trkpt>
      <trkpt lat="59.314777" lon="18.050206">
        <ele>24</ele>
        <time>1970-01-01T01:00:00Z</time>
      </trkpt>
      <trkpt lat="59.314781" lon="18.050255">
        <ele>23.8182</ele>
        <time>1970-01-01T01:00:00Z</time>
      </trkpt>
      <trkpt lat="59.314784" lon="18.050305">
        <ele>23.6364</ele>
        <time>1970-01-01T01:00:00Z</time>
      </trkpt>
      <trkpt lat="59.314785" lon="18.050356">
        <ele>23.4545</ele>
        <time>1970-01-01T01:00:00Z</time>
      </trkpt>
      <trkpt lat="59.314786" lon="18.050407">
        <ele>23.3636</ele>
        <time>1970-01-01T01:00:00Z</time>
      </trkpt>
      <trkpt lat="59.314786" lon="18.050459">
        <ele>23.2727</ele>
        <time>1970-01-01T01:00:00Z</time>
      </trkpt>
      <trkpt lat="59.314786" lon="18.050512">
        <ele>23.1818</ele>
        <time>1970-01-01T01:00:00Z</time>
      </trkpt>
      <trkpt lat="59.314785" lon="18.050565">
        <ele>23.0909</ele>
        <time>1970-01-01T01:00:00Z</time>
      </trkpt>
      <trkpt lat="59.314785" lon="18.05062">
        <ele>23</ele>
        <time>1970-01-01T01:00:00Z</time>
      </trkpt>
      <trkpt lat="59.314785" lon="18.050675">
        <ele>23</ele>
        <time>1970-01-01T01:00:00Z</time>
      </trkpt>
      <trkpt lat="59.314786" lon="18.05073">
        <ele>23.0909</ele>
        <time>1970-01-01T01:00:00Z</time>
      </trkpt>
      <trkpt lat="59.314789" lon="18.050785">
        <ele>23.1818</ele>
        <time>1970-01-01T01:00:00Z</time>
      </trkpt>
      <trkpt lat="59.314793" lon="18.050839">
        <ele>23.2727</ele>
        <time>1970-01-01T01:00:00Z</time>
      </trkpt>
      <trkpt lat="59.314799" lon="18.050891">
        <ele>23.3636</ele>
        <time>1970-01-01T01:00:00Z</time>
      </trkpt>
      <trkpt lat="59.314806" lon="18.050942">
        <ele>23.4545</ele>
        <time>1970-01-01T01:00:00Z</time>
      </trkpt>
      <trkpt lat="59.31481" lon="18.050994">
        <ele>23.6364</ele>
        <time>1970-01-01T01:00:00Z</time>
      </trkpt>
      <trkpt lat="59.314813" lon="18.051046">
        <ele>23.8182</ele>
        <time>1970-01-01T01:00:00Z</time>
      </trkpt>
      <trkpt lat="59.314813" lon="18.051099">
        <ele>24</ele>
        <time>1970-01-01T01:00:00Z</time>
      </trkpt>
      <trkpt lat="59.31481" lon="18.051153">
        <ele>24.1818</ele>
        <time>1970-01-01T01:00:00Z</time>
      </trkpt>
      <trkpt lat="59.314805" lon="18.051206">
        <ele>24.3636</ele>
        <time>1970-01-01T01:00:00Z</time>
      </trkpt>
      <trkpt lat="59.3148" lon="18.051256">
        <ele>24.6364</ele>
        <time>1970-01-01T01:00:00Z</time>
      </trkpt>
      <trkpt lat="59.314794" lon="18.051304">
        <ele>24.8182</ele>
        <time>1970-01-01T01:00:00Z</time>
      </trkpt>
      <trkpt lat="59.314787" lon="18.051349">
        <ele>25</ele>
        <time>1970-01-01T01:00:00Z</time>
      </trkpt>
      <trkpt lat="59.314781" lon="18.051393">
        <ele>25.2727</ele>
        <time>1970-01-01T01:00:00Z</time>
      </trkpt>
      <trkpt lat="59.314776" lon="18.051437">
        <ele>25.5455</ele>
        <time>1970-01-01T01:00:00Z</time>
      </trkpt>
      <trkpt lat="59.31477" lon="18.051484">
        <ele>25.9091</ele>
        <time>1970-01-01T01:00:00Z</time>
      </trkpt>
      <trkpt lat="59.314762" lon="18.051535">
        <ele>26.1818</ele>
        <time>1970-01-01T01:00:00Z</time>
      </trkpt>
      <trkpt lat="59.314752" lon="18.051593">
        <ele>26.4545</ele>
        <time>1970-01-01T01:00:00Z</time>
      </trkpt>
      <trkpt lat="59.314739" lon="18.051659">
        <ele>26.8182</ele>
        <time>1970-01-01T01:00:00Z</time>
      </trkpt>
      <trkpt lat="59.314724" lon="18.051733">
        <ele>27.2727</ele>
        <time>1970-01-01T01:00:00Z</time>
      </trkpt>
      <trkpt lat="59.31471" lon="18.051815">
        <ele>27.7273</ele>
        <time>1970-01-01T01:00:00Z</time>
      </trkpt>
      <trkpt lat="59.314697" lon="18.051903">
        <ele>28.0909</ele>
        <time>1970-01-01T01:00:00Z</time>
      </trkpt>
      <trkpt lat="59.314688" lon="18.051994">
        <ele>28.5455</ele>
        <time>1970-01-01T01:00:00Z</time>
      </trkpt>
      <trkpt lat="59.314682" lon="18.052086">
        <ele>29</ele>
        <time>1970-01-01T01:00:00Z</time>
      </trkpt>
      <trkpt lat="59.314681" lon="18.052174">
        <ele>29.3636</ele>
        <time>1970-01-01T01:00:00Z</time>
      </trkpt>
      <trkpt lat="59.314684" lon="18.052258">
        <ele>29.7273</ele>
        <time>1970-01-01T01:00:00Z</time>
      </trkpt>
      <trkpt lat="59.314692" lon="18.052336">
        <ele>30.0909</ele>
        <time>1970-01-01T01:00:00Z</time>
      </trkpt>
      <trkpt lat="59.314703" lon="18.052413">
        <ele>30.4545</ele>
        <time>1970-01-01T01:00:00Z</time>
      </trkpt>
      <trkpt lat="59.314716" lon="18.052488">
        <ele>30.8182</ele>
        <time>1970-01-01T01:00:00Z</time>
      </trkpt>
      <trkpt lat="59.314731" lon="18.052562">
        <ele>31.0909</ele>
        <time>1970-01-01T01:00:00Z</time>
      </trkpt>
      <trkpt lat="59.314746" lon="18.052634">
        <ele>31.2727</ele>
        <time>1970-01-01T01:00:00Z</time>
      </trkpt>
      <trkpt lat="59.314759" lon="18.052703">
        <ele>31.4545</ele>
        <time>1970-01-01T01:00:00Z</time>
      </trkpt>
      <trkpt lat="59.314772" lon="18.052769">
        <ele>31.6364</ele>
        <time>1970-01-01T01:00:00Z</time>
      </trkpt>
      <trkpt lat="59.314783" lon="18.05283">
        <ele>31.7273</ele>
        <time>1970-01-01T01:00:00Z</time>
      </trkpt>
      <trkpt lat="59.314795" lon="18.052886">
        <ele>31.8182</ele>
        <time>1970-01-01T01:00:00Z</time>
      </trkpt>
      <trkpt lat="59.31481" lon="18.052935">
        <ele>32</ele>
        <time>1970-01-01T01:00:00Z</time>
      </trkpt>
      <trkpt lat="59.314827" lon="18.052977">
        <ele>32.1818</ele>
        <time>1970-01-01T01:00:00Z</time>
      </trkpt>
      <trkpt lat="59.314846" lon="18.053012">
        <ele>32.2727</ele>
        <time>1970-01-01T01:00:00Z</time>
      </trkpt>
      <trkpt lat="59.314866" lon="18.053044">
        <ele>32.3636</ele>
        <time>1970-01-01T01:00:00Z</time>
      </trkpt>
      <trkpt lat="59.314887" lon="18.053074">
        <ele>32.4545</ele>
        <time>1970-01-01T01:00:00Z</time>
      </trkpt>
      <trkpt lat="59.314908" lon="18.053103">
        <ele>32.5455</ele>
        <time>1970-01-01T01:00:00Z</time>
      </trkpt>
      <trkpt lat="59.314927" lon="18.053133">
        <ele>32.6364</ele>
        <time>1970-01-01T01:00:00Z</time>
      </trkpt>
      <trkpt lat="59.314944" lon="18.053166">
        <ele>32.7273</ele>
        <time>1970-01-01T01:00:00Z</time>
      </trkpt>
      <trkpt lat="59.314958" lon="18.053204">
        <ele>32.8182</ele>
        <time>1970-01-01T01:00:00Z</time>
      </trkpt>
      <trkpt lat="59.314969" lon="18.053247">
        <ele>33</ele>
        <time>1970-01-01T01:00:00Z</time>
      </trkpt>
      <trkpt lat="59.31498" lon="18.053295">
        <ele>33.1818</ele>
        <time>1970-01-01T01:00:00Z</time>
      </trkpt>
      <trkpt lat="59.31499" lon="18.053347">
        <ele>33.2727</ele>
        <time>1970-01-01T01:00:00Z</time>
      </trkpt>
      <trkpt lat="59.315" lon="18.053405">
        <ele>33.4545</ele>
        <time>1970-01-01T01:00:00Z</time>
      </trkpt>
      <trkpt lat="59.315009" lon="18.053467">
        <ele>33.6364</ele>
        <time>1970-01-01T01:00:00Z</time>
      </trkpt>
      <trkpt lat="59.315015" lon="18.053531">
        <ele>33.9091</ele>
        <time>1970-01-01T01:00:00Z</time>
      </trkpt>
      <trkpt lat="59.315016" lon="18.053596">
        <ele>34.1818</ele>
        <time>1970-01-01T01:00:00Z</time>
      </trkpt>
      <trkpt lat="59.315015" lon="18.053661">
        <ele>34.4545</ele>
        <time>1970-01-01T01:00:00Z</time>
      </trkpt>
      <trkpt lat="59.315013" lon="18.053725">
        <ele>34.7273</ele>
        <time>1970-01-01T01:00:00Z</time>
      </trkpt>
      <trkpt lat="59.315013" lon="18.053786">
        <ele>35</ele>
        <time>1970-01-01T01:00:00Z</time>
      </trkpt>
      <trkpt lat="59.315017" lon="18.053844">
        <ele>35.2727</ele>
        <time>1970-01-01T01:00:00Z</time>
      </trkpt>
      <trkpt lat="59.315022" lon="18.053899">
        <ele>35.4545</ele>
        <time>1970-01-01T01:00:00Z</time>
      </trkpt>
      <trkpt lat="59.315028" lon="18.053953">
        <ele>35.6364</ele>
        <time>1970-01-01T01:00:00Z</time>
      </trkpt>
      <trkpt lat="59.315032" lon="18.054007">
        <ele>35.8182</ele>
        <time>1970-01-01T01:00:00Z</time>
      </trkpt>
      <trkpt lat="59.315035" lon="18.05406">
        <ele>35.8182</ele>
        <time>1970-01-01T01:00:00Z</time>
      </trkpt>
      <trkpt lat="59.315036" lon="18.054112">
        <ele>35.8182</ele>
        <time>1970-01-01T01:00:00Z</time>
      </trkpt>
      <trkpt lat="59.315037" lon="18.054164">
        <ele>35.7273</ele>
        <time>1970-01-01T01:00:00Z</time>
      </trkpt>
      <trkpt lat="59.315037" lon="18.054216">
        <ele>35.6364</ele>
        <time>1970-01-01T01:00:00Z</time>
      </trkpt>
      <trkpt lat="59.315038" lon="18.054266">
        <ele>35.5455</ele>
        <time>1970-01-01T01:00:00Z</time>
      </trkpt>
      <trkpt lat="59.315039" lon="18.054317">
        <ele>35.4545</ele>
        <time>1970-01-01T01:00:00Z</time>
      </trkpt>
      <trkpt lat="59.31504" lon="18.054366">
        <ele>35.3636</ele>
        <time>1970-01-01T01:00:00Z</time>
      </trkpt>
      <trkpt lat="59.315043" lon="18.054415">
        <ele>35.1818</ele>
        <time>1970-01-01T01:00:00Z</time>
      </trkpt>
      <trkpt lat="59.315047" lon="18.054463">
        <ele>35</ele>
        <time>1970-01-01T01:00:00Z</time>
      </trkpt>
      <trkpt lat="59.315054" lon="18.054511">
        <ele>34.8182</ele>
        <time>1970-01-01T01:00:00Z</time>
      </trkpt>
      <trkpt lat="59.315063" lon="18.054558">
        <ele>34.6364</ele>
        <time>1970-01-01T01:00:00Z</time>
      </trkpt>
      <trkpt lat="59.315074" lon="18.054605">
        <ele>34.5455</ele>
        <time>1970-01-01T01:00:00Z</time>
      </trkpt>
      <trkpt lat="59.315088" lon="18.054651">
        <ele>34.5455</ele>
        <time>1970-01-01T01:00:00Z</time>
      </trkpt>
      <trkpt lat="59.315106" lon="18.054697">
        <ele>34.5455</ele>
        <time>1970-01-01T01:00:00Z</time>
      </trkpt>
      <trkpt lat="59.315127" lon="18.054742">
        <ele>34.5455</ele>
        <time>1970-01-01T01:00:00Z</time>
      </trkpt>
      <trkpt lat="59.315151" lon="18.054787">
        <ele>34.5455</ele>
        <time>1970-01-01T01:00:00Z</time>
      </trkpt>
      <trkpt lat="59.315174" lon="18.05483">
        <ele>34.5455</ele>
        <time>1970-01-01T01:00:00Z</time>
      </trkpt>
      <trkpt lat="59.315195" lon="18.054871">
        <ele>34.5455</ele>
        <time>1970-01-01T01:00:00Z</time>
      </trkpt>
      <trkpt lat="59.315213" lon="18.05491">
        <ele>34.6364</ele>
        <time>1970-01-01T01:00:00Z</time>
      </trkpt>
      <trkpt lat="59.315228" lon="18.054949">
        <ele>34.8182</ele>
        <time>1970-01-01T01:00:00Z</time>
      </trkpt>
      <trkpt lat="59.315241" lon="18.054989">
        <ele>35</ele>
        <time>1970-01-01T01:00:00Z</time>
      </trkpt>
      <trkpt lat="59.315252" lon="18.055032">
        <ele>35.1818</ele>
        <time>1970-01-01T01:00:00Z</time>
      </trkpt>
      <trkpt lat="59.315261" lon="18.055079">
        <ele>35.3636</ele>
        <time>1970-01-01T01:00:00Z</time>
      </trkpt>
      <trkpt lat="59.31527" lon="18.055128">
        <ele>35.5455</ele>
        <time>1970-01-01T01:00:00Z</time>
      </trkpt>
      <trkpt lat="59.315277" lon="18.055178">
        <ele>35.7273</ele>
        <time>1970-01-01T01:00:00Z</time>
      </trkpt>
      <trkpt lat="59.315283" lon="18.05523">
        <ele>35.9091</ele>
        <time>1970-01-01T01:00:00Z</time>
      </trkpt>
      <trkpt lat="59.315289" lon="18.055283">
        <ele>36.0909</ele>
        <time>1970-01-01T01:00:00Z</time>
      </trkpt>
      <trkpt lat="59.315295" lon="18.055336">
        <ele>36.2727</ele>
        <time>1970-01-01T01:00:00Z</time>
      </trkpt>
      <trkpt lat="59.3153" lon="18.055388">
        <ele>36.5455</ele>
        <time>1970-01-01T01:00:00Z</time>
      </trkpt>
      <trkpt lat="59.315305" lon="18.05544">
        <ele>36.8182</ele>
        <time>1970-01-01T01:00:00Z</time>
      </trkpt>
      <trkpt lat="59.315311" lon="18.055492">
        <ele>37</ele>
        <time>1970-01-01T01:00:00Z</time>
      </trkpt>
      <trkpt lat="59.315317" lon="18.055546">
        <ele>37.1818</ele>
        <time>1970-01-01T01:00:00Z</time>
      </trkpt>
      <trkpt lat="59.315323" lon="18.055601">
        <ele>37.3636</ele>
        <time>1970-01-01T01:00:00Z</time>
      </trkpt>
      <trkpt lat="59.315329" lon="18.055657">
        <ele>37.6364</ele>
        <time>1970-01-01T01:00:00Z</time>
      </trkpt>
      <trkpt lat="59.315333" lon="18.055715">
        <ele>37.8182</ele>
        <time>1970-01-01T01:00:00Z</time>
      </trkpt>
      <trkpt lat="59.315336" lon="18.055772">
        <ele>38</ele>
        <time>1970-01-01T01:00:00Z</time>
      </trkpt>
      <trkpt lat="59.315337" lon="18.05583">
        <ele>38.1818</ele>
        <time>1970-01-01T01:00:00Z</time>
      </trkpt>
      <trkpt lat="59.315337" lon="18.055888">
        <ele>38.3636</ele>
        <time>1970-01-01T01:00:00Z</time>
      </trkpt>
      <trkpt lat="59.315334" lon="18.055944">
        <ele>38.5455</ele>
        <time>1970-01-01T01:00:00Z</time>
      </trkpt>
      <trkpt lat="59.315331" lon="18.055999">
        <ele>38.6364</ele>
        <time>1970-01-01T01:00:00Z</time>
      </trkpt>
      <trkpt lat="59.315328" lon="18.056053">
        <ele>38.7273</ele>
        <time>1970-01-01T01:00:00Z</time>
      </trkpt>
      <trkpt lat="59.315325" lon="18.056104">
        <ele>38.8182</ele>
        <time>1970-01-01T01:00:00Z</time>
      </trkpt>
      <trkpt lat="59.315323" lon="18.056152">
        <ele>38.9091</ele>
        <time>1970-01-01T01:00:00Z</time>
      </trkpt>
      <trkpt lat="59.315321" lon="18.056197">
        <ele>39</ele>
        <time>1970-01-01T01:00:00Z</time>
      </trkpt>
      <trkpt lat="59.315321" lon="18.05624">
        <ele>39</ele>
        <time>1970-01-01T01:00:00Z</time>
      </trkpt>
      <trkpt lat="59.315321" lon="18.056281">
        <ele>39</ele>
        <time>1970-01-01T01:00:00Z</time>
      </trkpt>
      <trkpt lat="59.315322" lon="18.056322">
        <ele>39</ele>
        <time>1970-01-01T01:00:00Z</time>
      </trkpt>
      <trkpt lat="59.315324" lon="18.056363">
        <ele>39</ele>
        <time>1970-01-01T01:00:00Z</time>
      </trkpt>
      <trkpt lat="59.315327" lon="18.056406">
        <ele>39</ele>
        <time>1970-01-01T01:00:00Z</time>
      </trkpt>
      <trkpt lat="59.31533" lon="18.056454">
        <ele>39</ele>
        <time>1970-01-01T01:00:00Z</time>
      </trkpt>
      <trkpt lat="59.315333" lon="18.056508">
        <ele>39</ele>
        <time>1970-01-01T01:00:00Z</time>
      </trkpt>
      <trkpt lat="59.315336" lon="18.056568">
        <ele>39</ele>
        <time>1970-01-01T01:00:00Z</time>
      </trkpt>
      <trkpt lat="59.315339" lon="18.056633">
        <ele>39</ele>
        <time>1970-01-01T01:00:00Z</time>
      </trkpt>
      <trkpt lat="59.315342" lon="18.0567">
        <ele>39</ele>
        <time>1970-01-01T01:00:00Z</time>
      </trkpt>
      <trkpt lat="59.315345" lon="18.05677">
        <ele>39</ele>
        <time>1970-01-01T01:00:00Z</time>
      </trkpt>
      <trkpt lat="59.315348" lon="18.056839">
        <ele>39</ele>
        <time>1970-01-01T01:00:00Z</time>
      </trkpt>
      <trkpt lat="59.315351" lon="18.056909">
        <ele>39</ele>
        <time>1970-01-01T01:00:00Z</time>
      </trkpt>
      <trkpt lat="59.315353" lon="18.056976">
        <ele>39</ele>
        <time>1970-01-01T01:00:00Z</time>
      </trkpt>
      <trkpt lat="59.315355" lon="18.057041">
        <ele>39</ele>
        <time>1970-01-01T01:00:00Z</time>
      </trkpt>
      <trkpt lat="59.315357" lon="18.057105">
        <ele>39</ele>
        <time>1970-01-01T01:00:00Z</time>
      </trkpt>
      <trkpt lat="59.31536" lon="18.057166">
        <ele>39</ele>
        <time>1970-01-01T01:00:00Z</time>
      </trkpt>
      <trkpt lat="59.315363" lon="18.057226">
        <ele>39</ele>
        <time>1970-01-01T01:00:00Z</time>
      </trkpt>
      <trkpt lat="59.315368" lon="18.057284">
        <ele>39</ele>
        <time>1970-01-01T01:00:00Z</time>
      </trkpt>
      <trkpt lat="59.315373" lon="18.05734">
        <ele>39</ele>
        <time>1970-01-01T01:00:00Z</time>
      </trkpt>
      <trkpt lat="59.315381" lon="18.057395">
        <ele>39</ele>
        <time>1970-01-01T01:00:00Z</time>
      </trkpt>
      <trkpt lat="59.31539" lon="18.057448">
        <ele>39.0909</ele>
        <time>1970-01-01T01:00:00Z</time>
      </trkpt>
      <trkpt lat="59.315401" lon="18.057499">
        <ele>39.1818</ele>
        <time>1970-01-01T01:00:00Z</time>
      </trkpt>
      <trkpt lat="59.315413" lon="18.057549">
        <ele>39.2727</ele>
        <time>1970-01-01T01:00:00Z</time>
      </trkpt>
      <trkpt lat="59.315426" lon="18.057599">
        <ele>39.3636</ele>
        <time>1970-01-01T01:00:00Z</time>
      </trkpt>
      <trkpt lat="59.31544" lon="18.057647">
        <ele>39.4545</ele>
        <time>1970-01-01T01:00:00Z</time>
      </trkpt>
      <trkpt lat="59.315455" lon="18.057695">
        <ele>39.5455</ele>
        <time>1970-01-01T01:00:00Z</time>
      </trkpt>
      <trkpt lat="59.31547" lon="18.057743">
        <ele>39.6364</ele>
        <time>1970-01-01T01:00:00Z</time>
      </trkpt>
      <trkpt lat="59.315484" lon="18.05779">
        <ele>39.7273</ele>
        <time>1970-01-01T01:00:00Z</time>
      </trkpt>
      <trkpt lat="59.315499" lon="18.057837">
        <ele>39.8182</ele>
        <time>1970-01-01T01:00:00Z</time>
      </trkpt>
      <trkpt lat="59.315514" lon="18.057884">
        <ele>39.9091</ele>
        <time>1970-01-01T01:00:00Z</time>
      </trkpt>
      <trkpt lat="59.315529" lon="18.057931">
        <ele>39.9091</ele>
        <time>1970-01-01T01:00:00Z</time>
      </trkpt>
      <trkpt lat="59.315544" lon="18.057978">
        <ele>39.8182</ele>
        <time>1970-01-01T01:00:00Z</time>
      </trkpt>
      <trkpt lat="59.315559" lon="18.058025">
        <ele>39.7273</ele>
        <time>1970-01-01T01:00:00Z</time>
      </trkpt>
      <trkpt lat="59.315575" lon="18.058071">
        <ele>39.5455</ele>
        <time>1970-01-01T01:00:00Z</time>
      </trkpt>
      <trkpt lat="59.315591" lon="18.058117">
        <ele>39.3636</ele>
        <time>1970-01-01T01:00:00Z</time>
      </trkpt>
      <trkpt lat="59.315608" lon="18.058163">
        <ele>39.1818</ele>
        <time>1970-01-01T01:00:00Z</time>
      </trkpt>
      <trkpt lat="59.315625" lon="18.058208">
        <ele>39</ele>
        <time>1970-01-01T01:00:00Z</time>
      </trkpt>
      <trkpt lat="59.315643" lon="18.058254">
        <ele>38.7273</ele>
        <time>1970-01-01T01:00:00Z</time>
      </trkpt>
      <trkpt lat="59.315661" lon="18.058299">
        <ele>38.4545</ele>
        <time>1970-01-01T01:00:00Z</time>
      </trkpt>
      <trkpt lat="59.31568" lon="18.058343">
        <ele>38.1818</ele>
        <time>1970-01-01T01:00:00Z</time>
      </trkpt>
      <trkpt lat="59.315701" lon="18.058388">
        <ele>37.9091</ele>
        <time>1970-01-01T01:00:00Z</time>
      </trkpt>
      <trkpt lat="59.315722" lon="18.058432">
        <ele>37.7273</ele>
        <time>1970-01-01T01:00:00Z</time>
      </trkpt>
      <trkpt lat="59.315743" lon="18.058475">
        <ele>37.5455</ele>
        <time>1970-01-01T01:00:00Z</time>
      </trkpt>
      <trkpt lat="59.315764" lon="18.058519">
        <ele>37.3636</ele>
        <time>1970-01-01T01:00:00Z</time>
      </trkpt>
      <trkpt lat="59.315785" lon="18.058562">
        <ele>37.1818</ele>
        <time>1970-01-01T01:00:00Z</time>
      </trkpt>
      <trkpt lat="59.315804" lon="18.058605">
        <ele>37</ele>
        <time>1970-01-01T01:00:00Z</time>
      </trkpt>
      <trkpt lat="59.315823" lon="18.058647">
        <ele>36.8182</ele>
        <time>1970-01-01T01:00:00Z</time>
      </trkpt>
      <trkpt lat="59.31584" lon="18.05869">
        <ele>36.6364</ele>
        <time>1970-01-01T01:00:00Z</time>
      </trkpt>
      <trkpt lat="59.315857" lon="18.058732">
        <ele>36.5455</ele>
        <time>1970-01-01T01:00:00Z</time>
      </trkpt>
      <trkpt lat="59.315874" lon="18.058775">
        <ele>36.4545</ele>
        <time>1970-01-01T01:00:00Z</time>
      </trkpt>
      <trkpt lat="59.31589" lon="18.05882">
        <ele>36.3636</ele>
        <time>1970-01-01T01:00:00Z</time>
      </trkpt>
      <trkpt lat="59.315906" lon="18.058866">
        <ele>36.3636</ele>
        <time>1970-01-01T01:00:00Z</time>
      </trkpt>
      <trkpt lat="59.315922" lon="18.058915">
        <ele>36.3636</ele>
        <time>1970-01-01T01:00:00Z</time>
      </trkpt>
      <trkpt lat="59.315938" lon="18.058966">
        <ele>36.3636</ele>
        <time>1970-01-01T01:00:00Z</time>
      </trkpt>
      <trkpt lat="59.315954" lon="18.059018">
        <ele>36.3636</ele>
        <time>1970-01-01T01:00:00Z</time>
      </trkpt>
      <trkpt lat="59.31597" lon="18.059073">
        <ele>36.4545</ele>
        <time>1970-01-01T01:00:00Z</time>
      </trkpt>
      <trkpt lat="59.315985" lon="18.059128">
        <ele>36.5455</ele>
        <time>1970-01-01T01:00:00Z</time>
      </trkpt>
      <trkpt lat="59.315999" lon="18.059185">
        <ele>36.6364</ele>
        <time>1970-01-01T01:00:00Z</time>
      </trkpt>
      <trkpt lat="59.316013" lon="18.059242">
        <ele>36.7273</ele>
        <time>1970-01-01T01:00:00Z</time>
      </trkpt>
      <trkpt lat="59.316026" lon="18.059299">
        <ele>36.8182</ele>
        <time>1970-01-01T01:00:00Z</time>
      </trkpt>
      <trkpt lat="59.316039" lon="18.059357">
        <ele>36.9091</ele>
        <time>1970-01-01T01:00:00Z</time>
      </trkpt>
      <trkpt lat="59.31605" lon="18.059414">
        <ele>37</ele>
        <time>1970-01-01T01:00:00Z</time>
      </trkpt>
      <trkpt lat="59.31606" lon="18.059471">
        <ele>37</ele>
        <time>1970-01-01T01:00:00Z</time>
      </trkpt>
      <trkpt lat="59.31607" lon="18.059527">
        <ele>37</ele>
        <time>1970-01-01T01:00:00Z</time>
      </trkpt>
      <trkpt lat="59.316077" lon="18.059582">
        <ele>37</ele>
        <time>1970-01-01T01:00:00Z</time>
      </trkpt>
      <trkpt lat="59.316084" lon="18.059636">
        <ele>37</ele>
        <time>1970-01-01T01:00:00Z</time>
      </trkpt>
      <trkpt lat="59.316089" lon="18.059688">
        <ele>37</ele>
        <time>1970-01-01T01:00:00Z</time>
      </trkpt>
      <trkpt lat="59.316092" lon="18.059737">
        <ele>37</ele>
        <time>1970-01-01T01:00:00Z</time>
      </trkpt>
      <trkpt lat="59.316093" lon="18.059785">
        <ele>37</ele>
        <time>1970-01-01T01:00:00Z</time>
      </trkpt>
    </trkseg>
  </trk>
</gpx>